Melbourne Airport, Australia

10:06 PM AEST on August 17, 2017 (GMT +1000)
Melbourne International

Weather History for YMML - March, 2013

Change the Weather History Date:

Monday, March 18, 2013

  Actual Average Record
Temperature  
Mean Temperature 59 °F -  
Max Temperature 66 °F 68 °F 95 °F (2002)
Min Temperature 52 °F 50 °F 46 °F (1997)
Degree Days  
Heating Degree Days 6    
Growing Degree Days 9 (Base 50)    
Moisture  
Dew Point 51 °F    
Average Humidity 79    
Maximum Humidity 100    
Minimum Humidity 47    
Precipitation  
Precipitation 0.08 in 0.06 in - ()
Sea Level Pressure  
Sea Level Pressure 30.22 in    
Wind  
Wind Speed 8 mph ()    
Max Wind Speed 16 mph    
Max Gust Speed -    
Visibility 5.9 miles    
Events Fog , Rain    
Averages and records for this station are not official NWS values.
T = Trace of Precipitation, MM = Missing Value Source: Averaged Metar Reports

Daily Weather History Graph

Daily Weather History Graph

Search for Another Location

Airport or City:

Trip Planner

Search our weather history database for the weather conditions in past years. The results will help you decide how hot, cold, wet, or windy it might be!

Date:

Astronomy

Mar. 18, 2013 Rise Set
Actual Time 7:21 AM AEDT 7:35 PM AEDT
Civil Twilight 6:55 AM AEDT 8:01 PM AEDT
Nautical Twilight 6:24 AM AEDT 8:32 PM AEDT
Astronomical Twilight 5:53 AM AEDT 9:03 PM AEDT
Moon 1:17 PM AEDT (3/18) 11:24 PM AEDT (3/18)
Length of Visible Light 13h 06m
Length of Day
12h 14m
Waxing Crescent, 34% of the Moon is Illuminated
Mar 18
Waxing Crescent
Mar 20
First Quarter
Mar 27
Full
Apr 3
Last Quarter
Apr 10
New

Hourly Weather History & Observations

Time (AEDT) Temp. Dew Point Humidity Pressure Visibility Wind Dir Wind Speed Gust Speed Precip Events Conditions
12:00 AM 54 °F 50 °F 81% 30.23 in 19 mi SW 10.4 mph - - Fog Light Fog
12:00 AM 53.6 °F 50.0 °F 88% 30.21 in 6.2 mi SW 10.4 mph - N/A   Mostly Cloudy
12:30 AM 53.6 °F 48.2 °F 82% 30.21 in 6.2 mi WSW 10.4 mph - N/A   Mostly Cloudy
1:00 AM 53.6 °F 50.0 °F 88% 30.21 in 6.2 mi SW 12.7 mph - N/A   Mostly Cloudy
1:30 AM 53.6 °F 48.2 °F 82% 30.21 in 6.2 mi WSW 10.4 mph - N/A   Mostly Cloudy
2:00 AM 53 °F 50 °F 86% 30.22 in - WSW 9.2 mph - -  
2:00 AM 53.6 °F 50.0 °F 88% 30.21 in 6.2 mi WSW 9.2 mph - N/A   Mostly Cloudy
2:30 AM 53.6 °F 50.0 °F 88% 30.21 in 6.2 mi WSW 9.2 mph - N/A   Mostly Cloudy
3:00 AM 53 °F 49 °F 80% 30.22 in 12 mi SW 8.1 mph - - Rain Light Rain Showers
3:00 AM 53.6 °F 48.2 °F 82% 30.21 in 6.2 mi SW 8.1 mph - N/A Rain Light Rain Showers
3:30 AM 53.6 °F 48.2 °F 82% 30.21 in 6.2 mi SSE 3.5 mph - N/A   Mostly Cloudy
4:00 AM 53.6 °F 48.2 °F 82% 30.18 in 6.2 mi West 5.8 mph - N/A   Mostly Cloudy
4:30 AM 53.6 °F 48.2 °F 82% 30.18 in 6.2 mi West 2.3 mph - N/A Rain Light Rain Showers
5:00 AM 54 °F 49 °F 76% 30.20 in - SE 5.8 mph - -  
5:00 AM 53.6 °F 48.2 °F 82% 30.18 in 6.2 mi SE 5.8 mph - N/A   Mostly Cloudy
5:30 AM 53.6 °F 50.0 °F 88% 30.18 in 6.2 mi SSW 4.6 mph - N/A   Mostly Cloudy
6:00 AM 53 °F 49 °F 82% 30.20 in 16 mi SSW 5.8 mph - -   Mostly Cloudy
6:00 AM 53.6 °F 50.0 °F 88% 30.21 in 6.2 mi SSW 5.8 mph - N/A   Mostly Cloudy
6:30 AM 53.6 °F 48.2 °F 82% 30.21 in 6.2 mi West 5.8 mph - N/A   Mostly Cloudy
7:07 AM 51.8 °F 50.0 °F 94% 30.21 in 3.1 mi Calm Calm - N/A Rain Light Rain Showers
7:30 AM 51.8 °F 50.0 °F 94% 30.21 in 6.2 mi West 4.6 mph - N/A   Mostly Cloudy
8:00 AM 53 °F 51 °F 90% 30.23 in - Calm Calm - -  
8:00 AM 53.6 °F 51.8 °F 94% 30.21 in 6.2 mi Calm Calm - N/A   Mostly Cloudy
8:11 AM 53.6 °F 51.8 °F 94% 30.21 in 3.1 mi NNW 4.6 mph - N/A   Mostly Cloudy
8:30 AM 53.6 °F 51.8 °F 94% 30.24 in 2.5 mi WNW 4.6 mph - N/A Rain Light Rain Showers
8:39 AM 53.6 °F 51.8 °F 94% 30.24 in 2.5 mi West 5.8 mph - N/A Rain Light Rain Showers
9:00 AM 53 °F 52 °F 95% 30.25 in 3 mi South 4.6 mph - - Rain Light Rain Showers
9:00 AM 53.6 °F 51.8 °F 94% 30.24 in 3.1 mi South 4.6 mph - N/A Rain Light Rain Showers
9:30 AM 53.6 °F 53.6 °F 100% 30.24 in 3.7 mi West 3.5 mph - N/A Rain Light Rain Showers
9:45 AM 55.4 °F 53.6 °F 94% 30.24 in 1.9 mi West 4.6 mph - N/A Rain Light Rain Showers
10:00 AM 53.6 °F 53.6 °F 100% 30.24 in 3.1 mi West 5.8 mph - N/A Rain Light Rain Showers
10:30 AM 55.4 °F 53.6 °F 94% 30.24 in 3.1 mi West 5.8 mph - N/A Rain Light Rain Showers
11:00 AM 56 °F 55 °F 96% 30.26 in - SSW 1.2 mph - -  
11:00 AM 57.2 °F 55.4 °F 94% 30.24 in 3.1 mi SSW 1.2 mph - N/A Rain Light Rain Showers
11:30 AM 59.0 °F 55.4 °F 88% 30.24 in 5.0 mi SSW 6.9 mph - N/A   Mostly Cloudy
12:00 PM 58 °F 56 °F 92% 30.25 in 5 mi South 10.4 mph - - Rain Light Rain Showers
12:00 PM 57.2 °F 57.2 °F 100% 30.24 in 5.0 mi South 10.4 mph - N/A Rain Light Rain Showers
12:25 PM 59.0 °F 57.2 °F 94% 30.24 in 3.1 mi South 6.9 mph - N/A Rain Light Rain Showers
12:30 PM 59.0 °F 55.4 °F 88% 30.24 in 5.0 mi South 8.1 mph - N/A   Mostly Cloudy
1:00 PM 60.8 °F 55.4 °F 82% 30.24 in 6.2 mi South 4.6 mph - N/A   Mostly Cloudy
1:30 PM 64.4 °F 55.4 °F 73% 30.21 in 6.2 mi South 9.2 mph - N/A   Mostly Cloudy
2:00 PM 63 °F 54 °F 64% 30.22 in - SW 15.0 mph - -  
2:00 PM 62.6 °F 53.6 °F 72% 30.21 in 6.2 mi SW 15.0 mph - N/A   Mostly Cloudy
2:30 PM 64.4 °F 51.8 °F 64% 30.21 in 6.2 mi South 15.0 mph - N/A   Mostly Cloudy
3:00 PM 63 °F 53 °F 60% 30.22 in 25 mi South 16.1 mph - -   Mostly Cloudy
3:00 PM 62.6 °F 51.8 °F 68% 30.21 in 6.2 mi South 16.1 mph - N/A   Mostly Cloudy
3:30 PM 64.4 °F 51.8 °F 64% 30.21 in 6.2 mi South 15.0 mph - N/A   Mostly Cloudy
4:00 PM 64.4 °F 51.8 °F 64% 30.21 in 6.2 mi South 15.0 mph - N/A   Mostly Cloudy
4:30 PM 64.4 °F 50.0 °F 59% 30.21 in 6.2 mi South 11.5 mph - N/A   Scattered Clouds
5:00 PM 65 °F 50 °F 48% 30.20 in - South 12.7 mph - -  
5:00 PM 66.2 °F 50.0 °F 56% 30.18 in 6.2 mi South 12.7 mph - N/A   Scattered Clouds
5:30 PM 64.4 °F 50.0 °F 59% 30.18 in 6.2 mi South 13.8 mph - N/A   Scattered Clouds
6:00 PM 65 °F 49 °F 47% 30.20 in 25 mi South 13.8 mph - -   Partly Cloudy
6:00 PM 64.4 °F 50.0 °F 59% 30.21 in 6.2 mi South 13.8 mph - N/A   Partly Cloudy
6:30 PM 64.4 °F 50.0 °F 59% 30.21 in 6.2 mi South 15.0 mph - N/A   Partly Cloudy
7:00 PM 62.6 °F 51.8 °F 68% 30.21 in 6.2 mi South 13.8 mph - N/A   Partly Cloudy
7:30 PM 60.8 °F 51.8 °F 72% 30.21 in 6.2 mi South 11.5 mph - N/A   Partly Cloudy
8:00 PM 60 °F 51 °F 64% 30.22 in - South 10.4 mph - -  
8:00 PM 60.8 °F 51.8 °F 72% 30.21 in 6.2 mi South 10.4 mph - N/A   Partly Cloudy
8:30 PM 59.0 °F 50.0 °F 72% 30.21 in 6.2 mi South 6.9 mph - N/A   Partly Cloudy
9:00 PM 58 °F 50 °F 67% 30.24 in 25 mi South 8.1 mph - -   Partly Cloudy
9:00 PM 59.0 °F 50.0 °F 72% 30.24 in 6.2 mi South 8.1 mph - N/A   Scattered Clouds
9:30 PM 57.2 °F 50.0 °F 77% 30.24 in 6.2 mi South 5.8 mph - N/A   Mostly Cloudy
10:00 PM 59.0 °F 50.0 °F 72% 30.24 in 6.2 mi South 6.9 mph - N/A   Mostly Cloudy
10:30 PM 60.8 °F 50.0 °F 68% 30.24 in 6.2 mi ESE 8.1 mph - N/A   Mostly Cloudy
11:00 PM 60 °F 49 °F 58% 30.26 in - East 5.8 mph - -  
11:00 PM 60.8 °F 50.0 °F 68% 30.24 in 6.2 mi East 5.8 mph - N/A   Mostly Cloudy
11:30 PM 59.0 °F 48.2 °F 67% 30.24 in 6.2 mi ESE 6.9 mph - N/A   Mostly Cloudy